TimePST,TemperatureF,Dew PointF,Humidity,Sea Level PressureIn,VisibilityMPH,Wind Direction,Wind SpeedMPH,Gust SpeedMPH,PrecipitationIn,Events,Conditions,WindDirDegrees,DateUTC
12:47 AM,57.0,54.0,89,30.18,10.0,Calm,Calm,-,N/A,,Clear,0,2012-12-04 08:47:00
1:47 AM,57.0,54.0,89,30.19,10.0,Calm,Calm,-,N/A,,Partly Cloudy,0,2012-12-04 09:47:00
1:58 AM,57.2,53.6,88,30.19,10.0,Calm,Calm,-,N/A,,Mostly Cloudy,0,2012-12-04 09:58:00
2:20 AM,55.4,53.6,94,30.19,10.0,Calm,Calm,-,N/A,,Scattered Clouds,0,2012-12-04 10:20:00
2:47 AM,55.9,54.0,93,30.19,10.0,Calm,Calm,-,N/A,,Clear,0,2012-12-04 10:47:00
3:20 AM,55.4,53.6,94,30.20,10.0,Calm,Calm,-,N/A,,Mostly Cloudy,0,2012-12-04 11:20:00
3:47 AM,55.9,54.0,93,30.20,10.0,Calm,Calm,-,N/A,,Mostly Cloudy,0,2012-12-04 11:47:00
4:47 AM,57.9,54.0,87,30.20,6.0,Calm,Calm,-,N/A,,Mostly Cloudy,0,2012-12-04 12:47:00
5:47 AM,57.9,55.0,90,30.21,5.0,Calm,Calm,-,N/A,,Overcast,0,2012-12-04 13:47:00
6:47 AM,59.0,55.0,87,30.21,5.0,Calm,Calm,-,N/A,,Overcast,0,2012-12-04 14:47:00
7:47 AM,59.0,54.0,83,30.23,4.0,Calm,Calm,-,N/A,,Haze,0,2012-12-04 15:47:00
8:19 AM,60.8,53.6,77,30.23,5.0,Variable,3.5,-,N/A,,Haze,0,2012-12-04 16:19:00
8:47 AM,60.1,53.1,78,30.25,6.0,NNE,3.5,-,N/A,,Haze,30,2012-12-04 16:47:00
9:47 AM,64.0,54.0,70,30.24,7.0,Calm,Calm,-,N/A,,Clear,0,2012-12-04 17:47:00
10:47 AM,66.9,53.1,61,30.22,8.0,Calm,Calm,-,N/A,,Clear,0,2012-12-04 18:47:00
11:47 AM,64.9,55.9,73,30.20,6.0,Variable,4.6,-,N/A,,Haze,0,2012-12-04 19:47:00
12:47 PM,66.0,55.9,70,30.17,5.0,West,3.5,-,N/A,,Haze,280,2012-12-04 20:47:00
2:47 PM,62.1,55.9,80,30.15,5.0,Variable,4.6,-,N/A,,Haze,0,2012-12-04 22:47:00
3:47 PM,63.0,55.9,78,30.14,6.0,Calm,Calm,-,N/A,,Haze,0,2012-12-04 23:47:00
4:47 PM,62.1,55.9,80,30.14,7.0,Calm,Calm,-,N/A,,Clear,0,2012-12-05 00:47:00
5:47 PM,60.1,55.9,86,30.14,8.0,Calm,Calm,-,N/A,,Clear,0,2012-12-05 01:47:00
6:47 PM,59.0,55.9,90,30.15,7.0,Calm,Calm,-,N/A,,Clear,0,2012-12-05 02:47:00
7:47 PM,57.9,55.9,93,30.16,7.0,Calm,Calm,-,N/A,,Clear,0,2012-12-05 03:47:00
8:47 PM,57.0,55.0,93,30.15,6.0,Calm,Calm,-,N/A,,Clear,0,2012-12-05 04:47:00
9:47 PM,57.9,55.9,93,30.16,6.0,Calm,Calm,-,N/A,,Clear,0,2012-12-05 05:47:00
10:47 PM,57.9,55.0,90,30.15,6.0,Calm,Calm,-,N/A,,Clear,0,2012-12-05 06:47:00
11:47 PM,57.0,55.0,93,30.15,5.0,Calm,Calm,-,N/A,,Clear,0,2012-12-05 07:47:00